Riverside March, CA

1:42 PM PDT on March 27, 2017 (GMT -0700)
March Air Reserve Base

Weather History for KRIV - December, 2013

Change the Weather History Date:

Tuesday, December 24, 2013

  Actual Average Record
Temperature  
Mean Temperature 58 °F -  
Max Temperature 76 °F 62 °F 82 °F (2005)
Min Temperature 39 °F 37 °F 24 °F (1998)
Degree Days  
Heating Degree Days 8    
Growing Degree Days 8 (Base 50)    
Moisture  
Dew Point 32 °F    
Average Humidity 44    
Maximum Humidity 73    
Minimum Humidity 16    
Precipitation  
Precipitation 0.00 in - - ()
Sea Level Pressure  
Sea Level Pressure 30.18 in    
Wind  
Wind Speed 3 mph (NW)    
Max Wind Speed 7 mph    
Max Gust Speed -    
Visibility 10 miles    
Events      
Averages and records for this station are not official NWS values.
T = Trace of Precipitation, MM = Missing Value Source: NWS Daily Summary

Daily Weather History Graph

Daily Weather History Graph

Search for Another Location

Airport or City:

Trip Planner

Search our weather history database for the weather conditions in past years. The results will help you decide how hot, cold, wet, or windy it might be!

Date:

Astronomy

Dec. 24, 2013 Rise Set
Actual Time 6:51 AM PST 4:45 PM PST
Civil Twilight 6:24 AM PST 5:13 PM PST
Nautical Twilight 5:52 AM PST 5:44 PM PST
Astronomical Twilight 5:22 AM PST 6:15 PM PST
Moon 11:39 PM PST (12/24) 11:05 AM PST (12/24)
Length of Visible Light 10h 49m
Length of Day
9h 54m
Waning Gibbous, 57% of the Moon is Illuminated
Dec 24
Waning Gibbous
Dec 25
Last Quarter
Jan 1
New
Jan 7
First Quarter
Jan 15
Full

Hourly Weather History & Observations

Time (PST) Temp. Windchill Dew Point Humidity Pressure Visibility Wind Dir Wind Speed Gust Speed Precip Events Conditions
12:58 AM 44.1 °F 42.5 °F 31.8 °F 62% 30.20 in 10.0 mi NW 3.5 mph - N/A   Clear
1:58 AM 49.6 °F - 32.0 °F 51% 30.20 in 10.0 mi SSE 3.5 mph - N/A   Clear
2:58 AM 45.1 °F - 32.4 °F 61% 30.21 in 10.0 mi Variable 2.3 mph - N/A   Clear
3:58 AM 44.2 °F - 32.5 °F 63% 30.20 in 10.0 mi Calm Calm - N/A   Clear
4:58 AM 41.4 °F - 31.6 °F 68% 30.19 in 10.0 mi NW 2.3 mph - N/A   Clear
5:58 AM 41.2 °F 38.2 °F 31.8 °F 69% 30.20 in 10.0 mi North 4.6 mph - N/A   Clear
6:58 AM 39.2 °F - 31.3 °F 73% 30.20 in 10.0 mi West 1.2 mph - N/A   Clear
7:58 AM 45.9 °F 44.6 °F 36.0 °F 68% 30.22 in 10.0 mi NNW 3.5 mph - N/A   Clear
8:58 AM 58.6 °F - 36.9 °F 44% 30.22 in 10.0 mi Calm Calm - N/A   Clear
9:58 AM 69.1 °F - 32.2 °F 25% 30.22 in 10.0 mi Calm Calm - N/A   Clear
10:58 AM 70.7 °F - 31.6 °F 24% 30.19 in 10.0 mi NNW 4.6 mph - N/A   Clear
11:58 AM 73.2 °F - 31.1 °F 21% 30.16 in 10.0 mi NW 4.6 mph - N/A   Clear
12:58 PM 74.7 °F - 28.9 °F 19% 30.14 in 10.0 mi Variable 2.3 mph - N/A   Clear
1:58 PM 76.1 °F - 27.3 °F 17% 30.11 in 10.0 mi North 1.2 mph - N/A   Clear
2:58 PM 75.9 °F - 27.1 °F 16% 30.11 in 10.0 mi ESE 2.3 mph - N/A   Clear
3:58 PM 75.0 °F - 31.8 °F 21% 30.12 in 10.0 mi NW 4.6 mph - N/A   Clear
4:58 PM 64.8 °F - 34.0 °F 32% 30.13 in 10.0 mi Calm Calm - N/A   Clear
5:58 PM 63.5 °F - 30.9 °F 29% 30.14 in 10.0 mi NNW 3.5 mph - N/A   Clear
6:58 PM 53.2 °F - 34.2 °F 48% 30.16 in 10.0 mi WSW 4.6 mph - N/A   Clear
7:58 PM 48.9 °F - 35.1 °F 59% 30.18 in 10.0 mi WNW 3.5 mph - N/A   Clear
8:58 PM 59.2 °F - 30.0 °F 33% 30.17 in 10.0 mi ESE 1.2 mph - N/A   Clear
9:58 PM 54.9 °F - 32.4 °F 42% 30.17 in 10.0 mi NNW 5.8 mph - N/A   Clear
10:58 PM 49.3 °F - 31.8 °F 51% 30.19 in 10.0 mi NW 5.8 mph - N/A   Clear
11:58 PM 47.8 °F - 31.6 °F 53% 30.20 in 10.0 mi WNW 6.9 mph - N/A   Clear